Location: Hamburg
(53.5500°N, 10.0000°E)
Time: 14:13:27
(UTC+02:00)

ISS - Visible Passes

Search period start: 22 October 2014 00:00
Search period end: 31 October 2014 23:00
Orbit: 413 x 416 km, 51.6° (Epoch: 22 October)

Date Brightness Start Highest point End Pass type
(mag) Time Alt. Az. Time Alt. Az. Time Alt. Az.
22 Oct -2.0 19:27:53 10° W 19:31:00 37° SSW 19:33:30 14° SE visible
22 Oct -0.2 21:05:51 10° WSW 21:06:22 11° SW 21:06:22 11° SW visible
23 Oct -2.3 18:38:46 10° W 18:42:00 46° SSW 18:45:13 10° ESE visible
23 Oct -0.8 20:15:58 10° WSW 20:18:09 16° SW 20:19:25 14° S visible
24 Oct -1.1 19:26:32 10° W 19:29:13 23° SSW 19:31:54 10° SSE visible
25 Oct -1.5 18:37:13 10° W 18:40:12 30° SSW 18:43:10 10° SE visible
26 Oct -0.3 18:25:38 10° WSW 18:27:08 13° SW 18:28:38 10° SSW visible
27 Oct -0.4 17:35:46 10° WSW 17:38:07 18° SW 17:40:26 10° S visible
